Location: Caltech
(34.1382°N, 118.1253°W)
Time: 02:43:16
(UTC-07:00)

Cosmos 1484 Rocket - Visible Passes

Search period start: 20 October 2014 00:00
Search period end: 30 October 2014 00:00
Orbit: 516 x 572 km, 97.4° (Epoch: 18 October)

Date Brightness Start Highest point End Pass type
(mag) Time Alt. Az. Time Alt. Az. Time Alt. Az.
20 Oct 5.3 20:22:46 14° N 20:22:46 14° N 20:23:24 10° N visible
21 Oct 5.4 20:16:48 13° N 20:16:48 13° N 20:17:17 10° N visible
22 Oct 5.4 20:10:50 12° N 20:10:50 12° N 20:11:08 10° N visible
23 Oct 5.5 20:04:52 11° N 20:04:52 11° N 20:04:59 10° N visible
